sat.trackr.live / text

‹ back to catalog

AEHF-5 (USA 292)

NORAD 44481 · 2019-051A

PAYLOAD ACTIVE UNKNOWN

§ Identity

Operator
Country
US
Launch date
2019-08-08
Launch site
AFETR
Launch vehicle
Mass (kg)
RCS (m²)

Purposes: comms

External: N2YO · Heavens-Above · Gunter

§ Orbital elements

Epoch: 2026-05-25T02:28:37.599744Z

Period
1,436.08 min
Inclination
1.4750°
Eccentricity
0.0067777
Mean motion
1.00272696 rev/d
Perigee alt
35,500.6 km
Apogee alt
36,072.1 km
Semi-major
42,164.5 km
B*
0.0000e+0
RAAN
334.5045°
Arg perigee
1.6763°
Mean anomaly
36.7588°
Rev number
2,503

§ Raw data

AEHF-5 (USA 292)1 44481U 19051A   26145.10321296 -.00000263  00000+0  00000+0 0  99992 44481   1.4750 334.5045 0067777   1.6763  36.7588  1.00272696 25031

JSON: /api/v1/satellites/44481 · /tle

For live sub-satellite position, see the globe view (requires WebGL).

§ Visibility from observer

Set your observer location to see the next 7 days of passes ≥ 10°. The values pass through the URL so the page stays shareable.

No JS? Fill the form by hand. The geolocation button needs JavaScript.